STARLINK-35157, 65814

Orbit data source: Space-Track

STARLINK-35157, 65814 is a payload satellite owned by SpaceX/Seattle (US) in SSO that was launched on Fri, 26 Sep 2025 UTC via an FALCON 9 launch vehicle from the Air Force Western Test Range (AFWTR). Payload-class satellites include a variety of spacecraft equipped with specific instruments for various scientific and technological missions. These include communications satellites like Starlink; space stations such as the ISS; scientific satellites like the Hubble; Earth observation satellites from companies like Planet Labs, Umbra, and HawkEye 360; GPS; miniature CubeSats for education and research; and military/defense satellites.

Loading next visibility...
Identifier
65814, 2025-218Z
Orbit
SSO
Country
Flag of USUS
Related business
Manufacturer
SpaceX/Seattle
Mission
Operational Commercial Communications
Bus & Motor
STARLINK V2MO, Unknown motor
Mass
575 kg wet, ~530 kg dry
Launch date (UTC)
2025-09-26 (4 months ago)
Launch vehicle
FALCON 9
Launch site
Air Force Western Test Range (AFWTR)
Object type
Payload
Rocket body
Debris
Shape & HBR
Box + 2 Pan, 17.7 m
Radar Cross Section
36.964 m²

Expand to show TLE details & history
Last TLE update: 15 hours ago

TLE from 15 hours ago
0 STARLINK-35157
1 65814U 25218Z   26023.48910510  .00013599  00000-0  94504-3 0  9995
2 65814  97.6028 248.4886 0002210  85.5629 274.5850 15.05643862 18176
Epoch: 2026-01-23T11:44Z
TLE epoch observation values (Epoch: 2026-01-23T11:44:18.680Z)
Latitude
-0.00006°
Longitude
-50.41641°
Altitude
552.473 km
Speed
7.586 km/s
True Right ascension
16h 33m 57s
True Declination
0° 00' 00"
Sunlit
Object was in daylight at epoch
Visualization orbit readout
Latitude
Unknown
Longitude
Unknown
Altitude
Unknown
Speed
Unknown
Apparent Right ascension
Unknown
Apparent Declination
Unknown
Sunlit
N/A
Visualization observer readout
Local Sidereal Time
03:36:57
Azimuth
Unknown
Elevation
Unknown
Doppler factor
Unknown
Orbital elements
Apogee altitude
548.054 km
Perigee altitude
544.993 km
Semi-major axis
6,924.66 km
Eccentricity
0.00022
Inclination
97.6028°
RAAN
248.4886°
Arg. of periapsis
85.5629°
True anomaly
274.55976°
Mean anomaly
274.585°
Eccentric anomaly
274.57238°
Mean motion
3.76656 °/min
Orbital period
95.58 mins
BSTAR
0.00094504
Loading maneuver chart data...
Computing Atmospheric mass density...
Loading historical data...
Loading historical data...
Loading historical data...
Loading historical data...
Loading historical data...
Loading historical data...
Loading historical data...

Documentation

Showing up to 5 results
|